Total_Precipitation_Accumulation
0.28 0.28 0.33 0.35 0.29 0.29 0.38 0.40 0.32 0.16 0.13 0.14 0.11 0.09 0.08 0.08 0.07 0.08 0.10 0.09 0.07 0.08 0.08 0.10 0.14 0.16 0.16 0.15 0.18 0.26 0.37 0.48 0.55 0.60 0.68 0.72 0.71 0.69 0.75 0.87 0.90 0.90 0.92 0.92
0.21 0.16 0.22 0.25 0.18 0.18 0.19 0.17 0.18 0.13 0.13 0.14 0.12 0.09 0.08 0.08 0.08 0.09 0.09 0.07 0.07 0.07 0.08 0.10 0.12 0.14 0.13 0.15 0.18 0.23 0.32 0.40 0.50 0.64 0.74 0.84 0.84 0.83 0.83 0.87 0.90 0.87 0.85 0.85
0.36 0.18 0.30 0.34 0.19 0.16 0.16 0.13 0.12 0.15 0.14 0.11 0.09 0.08 0.07 0.08 0.10 0.10 0.07 0.06 0.05 0.06 0.08 0.10 0.11 0.12 0.13 0.15 0.18 0.21 0.29 0.38 0.44 0.57 0.68 0.75 0.78 0.80 0.78 0.70 0.66 0.69 0.71 0.67
0.53 0.41 0.60 0.31 0.14 0.12 0.14 0.13 0.12 0.12 0.11 0.10 0.10 0.09 0.07 0.09 0.10 0.08 0.08 0.08 0.07 0.07 0.07 0.08 0.09 0.10 0.11 0.11 0.14 0.20 0.27 0.37 0.40 0.48 0.58 0.61 0.64 0.67 0.67 0.56 0.52 0.58 0.57 0.47
0.72 0.57 0.34 0.16 0.12 0.16 0.20 0.21 0.14 0.11 0.09 0.08 0.08 0.09 0.10 0.11 0.09 0.09 0.08 0.08 0.08 0.08 0.07 0.06 0.07 0.08 0.08 0.09 0.11 0.17 0.24 0.32 0.37 0.42 0.53 0.52 0.52 0.57 0.57 0.55 0.48 0.44 0.46 0.39
0.81 0.62 0.31 0.17 0.10 0.12 0.19 0.26 0.13 0.10 0.10 0.10 0.11 0.21 0.18 0.15 0.11 0.09 0.06 0.06 0.07 0.06 0.04 0.04 0.04 0.05 0.05 0.07 0.10 0.14 0.19 0.25 0.29 0.33 0.41 0.40 0.40 0.42 0.43 0.42 0.40 0.37 0.36 0.32
0.66 0.49 0.21 0.13 0.12 0.14 0.34 0.37 0.15 0.10 0.10 0.11 0.17 0.26 0.21 0.14 0.11 0.08 0.06 0.05 0.05 0.05 0.04 0.03 0.04 0.04 0.04 0.05 0.08 0.11 0.15 0.20 0.24 0.26 0.30 0.32 0.34 0.36 0.37 0.38 0.37 0.35 0.32 0.28
0.52 0.54 0.26 0.12 0.18 0.32 0.36 0.19 0.11 0.09 0.08 0.09 0.10 0.09 0.08 0.09 0.08 0.06 0.05 0.05 0.04 0.04 0.03 0.03 0.03 0.04 0.03 0.04 0.07 0.09 0.13 0.17 0.21 0.25 0.25 0.28 0.30 0.33 0.33 0.36 0.39 0.36 0.34 0.31
0.36 0.28 0.17 0.14 0.21 0.23 0.16 0.11 0.08 0.08 0.08 0.09 0.08 0.07 0.08 0.09 0.08 0.07 0.06 0.06 0.05 0.04 0.04 0.03 0.03 0.04 0.04 0.05 0.08 0.10 0.12 0.14 0.19 0.23 0.20 0.25 0.29 0.34 0.34 0.36 0.41 0.42 0.39 0.35
0.17 0.10 0.08 0.09 0.12 0.12 0.11 0.08 0.06 0.06 0.08 0.08 0.08 0.07 0.08 0.08 0.08 0.09 0.07 0.06 0.05 0.04 0.04 0.04 0.03 0.03 0.04 0.06 0.09 0.10 0.11 0.11 0.16 0.21 0.21 0.22 0.26 0.33 0.35 0.36 0.48 0.54 0.48 0.43
0.12 0.05 0.04 0.05 0.07 0.08 0.09 0.07 0.04 0.04 0.05 0.05 0.05 0.05 0.07 0.09 0.09 0.09 0.09 0.07 0.05 0.04 0.05 0.05 0.03 0.03 0.04 0.06 0.09 0.11 0.11 0.12 0.15 0.21 0.24 0.24 0.26 0.29 0.33 0.34 0.52 0.65 0.55 0.54
0.11 0.05 0.06 0.04 0.04 0.05 0.06 0.06 0.05 0.05 0.04 0.03 0.03 0.05 0.05 0.07 0.09 0.08 0.08 0.08 0.06 0.04 0.04 0.05 0.04 0.04 0.05 0.06 0.09 0.12 0.14 0.15 0.19 0.24 0.27 0.27 0.27 0.29 0.34 0.34 0.41 0.43 0.44 0.49
0.09 0.05 0.05 0.03 0.03 0.03 0.06 0.06 0.05 0.05 0.05 0.04 0.03 0.04 0.06 0.06 0.08 0.08 0.06 0.06 0.07 0.06 0.05 0.05 0.05 0.05 0.05 0.07 0.10 0.13 0.16 0.19 0.23 0.26 0.28 0.29 0.27 0.30 0.34 0.34 0.35 0.35 0.35 0.39
0.06 0.06 0.06 0.03 0.03 0.03 0.05 0.05 0.05 0.05 0.04 0.04 0.04 0.04 0.06 0.07 0.08 0.08 0.07 0.06 0.06 0.07 0.06 0.06 0.05 0.05 0.06 0.08 0.11 0.14 0.17 0.21 0.26 0.29 0.29 0.28 0.27 0.29 0.32 0.36 0.38 0.36 0.35 0.37
0.05 0.06 0.06 0.04 0.03 0.03 0.04 0.05 0.06 0.06 0.05 0.04 0.04 0.05 0.07 0.09 0.08 0.07 0.06 0.05 0.05 0.05 0.05 0.06 0.06 0.06 0.06 0.09 0.12 0.16 0.20 0.23 0.28 0.30 0.30 0.27 0.26 0.27 0.28 0.31 0.35 0.37 0.38 0.41
0.06 0.05 0.04 0.04 0.04 0.04 0.04 0.05 0.06 0.06 0.06 0.05 0.05 0.05 0.06 0.08 0.09 0.08 0.06 0.05 0.05 0.05 0.05 0.06 0.06 0.07 0.08 0.11 0.14 0.18 0.23 0.30 0.35 0.33 0.32 0.30 0.28 0.29 0.30 0.33 0.37 0.39 0.41 0.41
0.11 0.08 0.06 0.05 0.04 0.05 0.05 0.06 0.07 0.06 0.06 0.06 0.05 0.05 0.06 0.08 0.09 0.09 0.07 0.06 0.06 0.05 0.05 0.06 0.07 0.08 0.09 0.12 0.17 0.22 0.26 0.29 0.35 0.34 0.34 0.34 0.35 0.35 0.36 0.40 0.43 0.42 0.39 0.42
0.11 0.10 0.08 0.08 0.08 0.07 0.06 0.06 0.06 0.06 0.07 0.07 0.06 0.07 0.08 0.10 0.12 0.11 0.09 0.08 0.08 0.08 0.07 0.07 0.09 0.10 0.10 0.15 0.20 0.23 0.27 0.30 0.30 0.32 0.37 0.40 0.43 0.42 0.43 0.45 0.45 0.44 0.40 0.41
0.09 0.09 0.08 0.08 0.09 0.09 0.08 0.07 0.06 0.06 0.07 0.07 0.08 0.09 0.11 0.14 0.16 0.16 0.14 0.13 0.12 0.12 0.12 0.11 0.14 0.13 0.14 0.19 0.26 0.27 0.29 0.33 0.34 0.34 0.37 0.44 0.45 0.40 0.43 0.46 0.48 0.47 0.43 0.42
0.09 0.10 0.11 0.10 0.10 0.10 0.10 0.08 0.07 0.07 0.07 0.08 0.09 0.10 0.11 0.13 0.17 0.19 0.18 0.16 0.15 0.15 0.15 0.16 0.16 0.15 0.19 0.25 0.34 0.33 0.32 0.34 0.37 0.39 0.42 0.44 0.44 0.44 0.45 0.47 0.50 0.52 0.50 0.45
0.11 0.13 0.13 0.12 0.11 0.10 0.10 0.10 0.09 0.09 0.10 0.11 0.14 0.15 0.16 0.17 0.19 0.21 0.21 0.19 0.17 0.18 0.19 0.20 0.20 0.24 0.30 0.36 0.38 0.33 0.32 0.34 0.38 0.43 0.47 0.48 0.49 0.50 0.51 0.51 0.53 0.54 0.53 0.50
0.14 0.15 0.15 0.14 0.14 0.12 0.11 0.12 0.12 0.12 0.12 0.13 0.15 0.18 0.20 0.21 0.22 0.23 0.23 0.22 0.23 0.26 0.24 0.20 0.21 0.29 0.38 0.39 0.34 0.31 0.32 0.35 0.39 0.46 0.51 0.52 0.55 0.57 0.56 0.55 0.58 0.56 0.52 0.50
0.18 0.19 0.19 0.19 0.20 0.19 0.17 0.17 0.18 0.17 0.17 0.17 0.19 0.21 0.23 0.25 0.26 0.27 0.26 0.25 0.26 0.28 0.26 0.23 0.24 0.32 0.37 0.34 0.31 0.31 0.33 0.37 0.42 0.49 0.53 0.56 0.60 0.61 0.62 0.60 0.60 0.59 0.56 0.52
0.22 0.23 0.24 0.25 0.25 0.24 0.22 0.21 0.20 0.20 0.21 0.21 0.23 0.25 0.26 0.27 0.26 0.28 0.29 0.30 0.31 0.31 0.28 0.28 0.29 0.33 0.36 0.32 0.32 0.36 0.39 0.44 0.51 0.57 0.59 0.61 0.63 0.64 0.65 0.66 0.68 0.63 0.56 0.52
0.27 0.27 0.27 0.28 0.29 0.29 0.27 0.24 0.21 0.21 0.21 0.22 0.23 0.23 0.24 0.28 0.33 0.34 0.32 0.31 0.31 0.32 0.30 0.32 0.34 0.37 0.36 0.35 0.37 0.42 0.46 0.52 0.63 0.74 0.74 0.70 0.67 0.68 0.66 0.67 0.69 0.66 0.60 0.56
0.33 0.34 0.35 0.36 0.35 0.34 0.31 0.29 0.27 0.26 0.26 0.25 0.24 0.24 0.25 0.30 0.35 0.38 0.36 0.33 0.33 0.35 0.35 0.37 0.39 0.41 0.40 0.41 0.43 0.47 0.51 0.57 0.67 0.72 0.68 0.65 0.66 0.69 0.68 0.68 0.67 0.66 0.62 0.59
0.38 0.37 0.36 0.37 0.37 0.36 0.37 0.37 0.37 0.36 0.36 0.34 0.32 0.30 0.31 0.35 0.38 0.38 0.35 0.33 0.34 0.35 0.37 0.40 0.42 0.42 0.44 0.46 0.50 0.54 0.55 0.58 0.69 0.78 0.74 0.69 0.68 0.69 0.67 0.67 0.66 0.65 0.63 0.60